Creede, CO

2:16 AM MST on December 06, 2016 (GMT -0700)
Wolf Creek Pass

Weather History for KCPW - December, 2013

Change the Weather History Date:

Monday, December 16, 2013

  Actual Average (KALS) Record (KALS)
Temperature  
Mean Temperature 30 °F 17 °F  
Max Temperature 33 °F 35 °F 55 °F (1980)
Min Temperature 26 °F 0 °F -27 °F (1940)
Degree Days  
Heating Degree Days 36 48  
Month to date heating degree days 731  
Since 1 July heating degree days 2906  
Cooling Degree Days 0 0  
Month to date cooling degree days 0  
Year to date cooling degree days 51  
Moisture  
Dew Point 2 °F    
Average Humidity 32    
Maximum Humidity 43    
Minimum Humidity 21    
Precipitation  
Precipitation 0.00 in 0.01 in 0.29 in (1990)
Month to date precipitation 0.19  
Year to date precipitation 7.15  
Snow  
Snow 0.00 in 0.10 in 3.70 in (1990)
Month to date snowfall 2.4  
Since 1 July snowfall 8.2  
Snow Depth -    
Sea Level Pressure  
Sea Level Pressure 30.48 in    
Wind  
Wind Speed 7 mph (North)    
Max Wind Speed 17 mph    
Max Gust Speed 18 mph    
Visibility 10 miles    
Events      
T = Trace of Precipitation, MM = Missing Value Source: NWS Daily Summary

Daily Weather History Graph

Daily Weather History Graph

Search for Another Location

Airport or City:

Trip Planner

Search our weather history database for the weather conditions in past years. The results will help you decide how hot, cold, wet, or windy it might be!

Date:

Astronomy

Dec. 16, 2013 Rise Set
Actual Time 7:15 AM MST 4:50 PM MST
Civil Twilight 6:46 AM MST 5:20 PM MST
Nautical Twilight 6:13 AM MST 5:52 PM MST
Astronomical Twilight 5:41 AM MST 6:24 PM MST
Moon 4:42 PM MST (12/16) 6:27 AM MST (12/16)
Length of Visible Light 10h 33m
Length of Day
9h 35m
Full, 100% of the Moon is Illuminated
Dec 16
Full
Dec 17
Full
Dec 25
Last Quarter
Jan 1
New
Jan 7
First Quarter

Hourly Weather History & Observations

Time (MST) Temp. Windchill Dew Point Humidity Pressure Visibility Wind Dir Wind Speed Gust Speed Precip Events Conditions
1:13 PM 32.0 °F 25.6 °F 6.8 °F 35% 30.46 in 10.0 mi North 6.9 mph 16.1 mph N/A   Clear
1:33 PM 33.8 °F 27.0 °F 8.6 °F 35% 30.45 in 10.0 mi WNW 8.1 mph - N/A   Clear
1:53 PM 32.0 °F 25.6 °F 5.0 °F 32% 30.45 in 10.0 mi North 6.9 mph 16.1 mph N/A   Clear
2:13 PM 32.0 °F 24.2 °F 5.0 °F 32% 30.45 in 10.0 mi NW 9.2 mph - N/A   Clear
2:33 PM 32.0 °F 25.6 °F 6.8 °F 35% 30.46 in 10.0 mi NNW 6.9 mph - N/A   Clear
2:53 PM 32.0 °F 24.8 °F 6.8 °F 35% 30.45 in 10.0 mi North 8.1 mph - N/A   Clear
3:13 PM 32.0 °F 27.5 °F 6.8 °F 35% 30.46 in 10.0 mi North 4.6 mph - N/A   Clear
3:33 PM 32.0 °F 28.7 °F 5.0 °F 32% 30.46 in 10.0 mi North 3.5 mph - N/A   Clear
3:53 PM 32.0 °F 27.5 °F 6.8 °F 35% 30.47 in 10.0 mi NNE 4.6 mph - N/A   Clear
4:13 PM 30.2 °F 26.7 °F 6.8 °F 37% 30.47 in 10.0 mi NE 3.5 mph - N/A   Clear
4:33 PM 30.2 °F 25.4 °F 5.0 °F 34% 30.47 in 10.0 mi North 4.6 mph - N/A   Clear
4:53 PM 30.2 °F 25.4 °F 5.0 °F 34% 30.47 in 10.0 mi North 4.6 mph - N/A   Clear
5:13 PM 28.4 °F 24.6 °F 6.8 °F 40% 30.47 in 10.0 mi NNW 3.5 mph - N/A   Clear
5:33 PM 26.6 °F - 6.8 °F 43% 30.47 in 10.0 mi Calm Calm - N/A   Clear
5:53 PM 28.4 °F 22.2 °F 3.2 °F 34% 30.47 in 10.0 mi North 5.8 mph - N/A   Clear
6:13 PM 28.4 °F 19.1 °F 3.2 °F 34% 30.48 in 10.0 mi North 10.4 mph - N/A   Clear
6:33 PM 28.4 °F 18.5 °F 3.2 °F 34% 30.48 in 10.0 mi NNE 11.5 mph - N/A   Clear
6:53 PM 28.4 °F 16.6 °F 1.4 °F 31% 30.48 in 10.0 mi NNE 16.1 mph - N/A   Clear
7:13 PM 28.4 °F 16.2 °F 1.4 °F 31% 30.49 in 10.0 mi NNE 17.3 mph - N/A   Clear
7:33 PM 26.6 °F 15.7 °F 3.2 °F 37% 30.49 in 10.0 mi NE 12.7 mph - N/A   Clear
7:53 PM 26.6 °F 15.7 °F 1.4 °F 34% 30.50 in 10.0 mi NNE 12.7 mph - N/A   Clear
8:13 PM 26.6 °F 19.1 °F 1.4 °F 34% 30.50 in 10.0 mi NE 6.9 mph - N/A   Clear
8:33 PM 26.6 °F 15.7 °F -0.4 °F 31% 30.49 in 10.0 mi North 12.7 mph - N/A   Clear
8:53 PM 28.4 °F 19.7 °F -2.2 °F 27% 30.50 in 10.0 mi North 9.2 mph - N/A   Clear
9:13 PM 28.4 °F 21.2 °F -4.0 °F 25% 30.50 in 10.0 mi NNW 6.9 mph - N/A   Clear
9:33 PM 28.4 °F 20.4 °F -4.0 °F 25% 30.50 in 10.0 mi North 8.1 mph - N/A   Clear
9:53 PM 28.4 °F 19.7 °F -4.0 °F 25% 30.51 in 10.0 mi North 9.2 mph - N/A   Clear
10:13 PM 28.4 °F 23.3 °F -5.8 °F 23% 30.52 in 10.0 mi NE 4.6 mph - N/A   Clear
10:33 PM 26.6 °F 15.2 °F -4.0 °F 26% 30.52 in 10.0 mi NNE 13.8 mph 18.4 mph N/A   Clear
11:13 PM 26.6 °F 19.1 °F -4.0 °F 26% 30.54 in 10.0 mi NNE 6.9 mph - N/A   Clear
11:33 PM 26.6 °F 21.2 °F -4.0 °F 26% 30.54 in 10.0 mi ENE 4.6 mph - N/A   Clear
11:53 PM 28.4 °F 22.2 °F -7.6 °F 21% 30.53 in 10.0 mi NW 5.8 mph - N/A   Clear